Content
SEND FEEDBACK

Daily
Averages
Monthly
Summary
Germany

WITTENBERG, GERMANY


Home > Europe > Germany
Elevation: 358 feet     Latitude: 51 53N     Longitude: 012 39E

WEATHER
 
SELECT A DAY
Number of Records: 42,475;   Date Range: 3/9/98 - 8/27/14
 
SHARE

PRINT THIS DATA

[ ← Previous Day ]
WEATHER ALMANAC - JANUARY 31, 2013
[ Next Day → ]
[ °C ]   °F
Weather ElementAverageHighLow
Temperature43.2 °F46.4 °F (1:20 pm)39.2 °F (8:20 pm)
Dewpoint34.7 °F37.4 °F (1:20 am)32 °F (8:20 am)
Humidity72.8 %93 % (8:20 pm)57 % (3:20 pm)
Barometer29.74 in29.83 in (9:20 am)29.65 in (5:20 pm)
Wind Speed16.8 mph21.9 mph (11:20 am)
Wind Gust33.4 mph (7:20 pm)
Weather ElementAverage
Visibility6.2 mi
Wind DirectionWSW (246.1 °)

Weather ElementTotal
Precipitation---
Heating Degree Days22.2 (Base 65)
Averaged from 23 records on January 31, 2013
WEATHER CONDITIONS BREAKOUT
WIND DIRECTION BREAKOUT
WEATHER BY HOUR - JANUARY 31, 2013
[ °C ]   °F
Local TimeTemperatureDewpointHumidityBarometerVisibilityWind DirectionWind SpeedGust SpeedPrecipitationEventsConditions
1:20 AM42.8 °F37.4 °F81 %29.71 in6.2 miWSW (240°)17.3 mphScattered Clouds
2:20 AM42.8 °F37.4 °F81 %29.74 in6.2 miWest (260°)12.7 mphRainLight Rain Showers
3:20 AM42.8 °F37.4 °F81 %29.77 in6.2 miWSW (250°)18.4 mphMostly Cloudy
4:20 AM42.8 °F35.6 °F76 %29.77 in6.2 miWSW (240°)17.3 mphPartly Cloudy
5:20 AM42.8 °F33.8 °F70 %29.77 in6.2 miWSW (250°)13.8 mphPartly Cloudy
6:20 AM42.8 °F33.8 °F70 %29.80 in6.2 miWSW (250°)12.7 mphMostly Cloudy
7:20 AM42.8 °F33.8 °F70 %29.80 in6.2 miWSW (250°)19.6 mphScattered Clouds
8:20 AM42.8 °F32.0 °F66 %29.80 in6.2 miWSW (250°)18.4 mphScattered Clouds
9:20 AM42.8 °F32.0 °F66 %29.83 in6.2 miWSW (250°)16.1 mphScattered Clouds
10:20 AM44.6 °F33.8 °F66 %29.83 in6.2 miWSW (250°)15.0 mphMostly Cloudy
11:20 AM44.6 °F33.8 °F66 %29.80 in6.2 miWSW (250°)21.9 mphMostly Cloudy
12:20 PM44.6 °F33.8 °F66 %29.77 in6.2 miWSW (240°)17.3 mphMostly Cloudy
1:20 PM46.4 °F33.8 °F62 %29.77 in6.2 miWSW (240°)16.1 mphMostly Cloudy
2:20 PM46.4 °F33.8 °F62 %29.74 in6.2 miWSW (240°)19.6 mphMostly Cloudy
3:20 PM46.4 °F32.0 °F57 %29.68 in6.2 miWSW (240°)18.4 mph29.9 mphMostly Cloudy
4:20 PM46.4 °F32.0 °F57 %29.68 in6.2 miWSW (240°)19.6 mphRainLight Rain
5:20 PM44.6 °F35.6 °F71 %29.65 in6.2 miWSW (240°)19.6 mphMostly Cloudy
6:20 PM44.6 °F35.6 °F71 %29.65 in6.2 miWSW (240°)19.6 mphMostly Cloudy
7:20 PM42.8 °F37.4 °F81 %29.65 in6.2 miWSW (250°)21.9 mph33.4 mphRainLight Rain
8:20 PM39.2 °F37.4 °F93 %29.68 in6.2 miWest (260°)17.3 mphRainLight Rain
9:20 PM39.2 °F35.6 °F87 %29.68 in6.2 miWest (260°)13.8 mphMostly Cloudy
10:20 PM39.2 °F35.6 °F87 %29.68 in6.2 miSW (230°)9.2 mphMostly Cloudy
11:20 PM39.2 °F35.6 °F87 %29.68 in6.2 miWSW (240°)11.5 mphMostly Cloudy
Hourly data recorded from ETSH, located miles away from Wittenberg, Germany







STORIES FROM OUR PARTNERS